Torna al catalogo

STARLINK-32900

AttivoComunicazioniVLEO
NORAD 63093·PAYLOAD·🇺🇸 United States

Lanciato Feb 23, 2025 da Vandenberg Space Force Base

Loading…

Prossimi Passaggi (prossime 24 ore)

TLE

AggiornatoSource: CelesTrak SupGP

Epoca: Sep 14, 2026, 21:19 UTC

1 63093C 25037S   26257.88868056  .00046059  00000+0  16022-2 0  2572
2 63093  70.0006 235.9208 0003156 266.2229 313.2856 15.29557667    11

Traccia STARLINK-32900 in tempo reale con AllMySat

Download on the App Store